Regional Weather Roundup
Issued by NWS

Home | Current Version | Previous Version | Text Only | Print | Product List | Glossary On
Versions: 1 2 3 4 5 6 7 8 9 10 11 12 13 14 15 16 17 18 19 20 21 22 23 24 25 26 27 28 29 30 31 32 33 34 35 36 37 38 39 40 41 42 43 44 45 46 47 48 49 50
000
ASUS42 KKEY 041110
RWRKEY

FLORIDA REGIONAL WEATHER ROUNDUP FOR THE FLORIDA KEYS
NATIONAL WEATHER SERVICE KEY WEST FLORIDA
700 AM EDT FRI SEP 04 2015

...SOUTH FLORIDA AND THE KEYS...

CITY           SKY/WX    TMP DP  RH WIND       PRES   REMARKS
FORT MYERS     CLEAR     79  76  90 CALM      29.95R
SW REGIONAL AP CLEAR     80  75  84 N3        29.95R
NAPLES         NOT AVBL
MIAMI          MOCLDY    80  76  87 NW3       29.96R
WEST KENDALL   PTCLDY    74  74 100 N3        29.96R
HOMESTEAD      PTCLDY    78  73  86 NW6       29.95R
MARATHON       CLEAR     81  77  88 CALM      29.95R
BOCA CHICA NAS PTCLDY    82  76  81 CALM      29.95R
KEY WEST INTL  CLEAR     83  76  79 CALM      29.95R HX  91

...INTERNATIONAL WEATHER...

CITY           SKY/WX    TMP DP  RH WIND       PRES   REMARKS
NASSAU BAHAMAS MOCLDY    79  73  83 CALM      29.96R
CANCUN MEXICO  PTCLDY    79  77  94 E3        29.91S
COZUMEL MEXICO PTCLDY    72  72 100 CALM      29.91R

ADJACENT COASTAL WATERS...

STATION/POSITION TIME  SKY/WX   TEMP    WIND        PRES    WAVE
                                AIR SEA DIR/SP/G            HT/PER
                 (UTC)          (F)     (DEG/KT/KT) (MB)    (FT/S)
PULASKI SHOAL LI 1000                                 N/A
SAND KEY         1050            84     190/  3     1014.2R
SOMBRERO KEY     NOT AVBL
LONG KEY         1000            85 89  210/  6/  7 1014.4R
MOLASSES REEF    1100            84 87  230/  4/  5 1014.3R
FOWEY ROCKS      1100            84 86  260/  5/  6 1014.1R

$$


USA.gov is the U.S. government's official web portal to all federal, state and local government web resources and services.